Location: 22
(39.7117°N, 89.5929°W)
Time: 08:32:43
(UTC-05:00)

Vanguard 1 Rocket - Pass Details

Date: 14 February 2023
Orbit: 652 x 4223 km, 34.3° (Epoch: 24 March)

Event Time Altitude Azimuth Distance (km) Brightness Sun altitude
Rises 12:53:04 0° 271° (W) 4,138 10.9 36.5°
Reaches altitude 10° 12:55:20 10° 267° (W) 3,456 10.6 36.4°
Maximum altitude 13:04:20 61° 190° (S) 2,326 10.9 36.0°
Drops below altitude 10° 13:22:09 10° 116° (ESE) 6,441 11.9 34.9°
Sets 13:28:15 0° 114° (ESE) 7,898 12.2 34.5°
